星链-31582 (STARLINK-31582 )

导读

STARLINK-31582是美国太空探索技术公司SpaceX星链卫星互联网项目的一颗卫星,于2024年4月18日发射升空,属于星链部署计划中的组成部分。星链旨在构建全球卫星互联网星座,该卫星入轨后服务于低轨网络覆盖,为全球偏远地区等提供宽带互联网接入服务。

Basic Information
目录编号:
59545
目录名称:
STARLINK-31582
国际标识:
2024-074M
轨道中心:
EARTH
卫星名称:
星链-31582
卫星全名:
星链-31582 (STARLINK-31582 )
卫星状态:
在轨 (已飞行877 天)
发射日期:
2024-04-18 UTC
国别 :
美国 (US)
星等 :
--
This satellite is enrolled in the Space Conjunction Data Service (SCDS) and the current flight risk assessment level is: No High Risk
Orbit Information
数据来源 国际轨道数据 AOE轨道数据
星历时间 2026-09-11T17:45:35+0800
16小时前
查看轨道信息
2026-09-07T02:00:00+0800
5天前
查看轨道信息
半长轴 6861.197km 6861.187km
偏心率 0.0001249 0.000044
轨道倾角 43.004° 43.001°
近地点辐角 263.553° 272.941°
升交点赤经 15.004° 41.303°
平近点角 96.518° 8.845°
近地点 482.203km 482.748km
远地点 483.917km 483.352km
周期 94.267分钟 94.267分钟
每日圈数 15.275766 15.275797
Detailed Information
固有亮度:
5
最大亮度:
1.5
卫星平台:
Starlink v2.0 mini
覆盖范围:
全球
运营商:
太空探索技术公司
运营商所在国:
美国
制造商(研发单位):
太空探索技术公司
制造商所在国:
美国
使用方式:
暂无
Satellite Introduction
星链(Starlink)计划是由太空探索技术公司(SpaceX)提出的一个巨型低轨卫星互联网星座项目,计划在2019年至2024年间在太空搭建由约1.2万颗卫星组成的“星链”网络,其中1584颗将部署在地球上空550千米处的近地轨道,并从2020年开始工作。该卫星仍在工作。
2D Orbit Map
3D Orbit Map
Orbit Altitude Analysis Chart
Orbit Inclination Analysis Chart
Orbit Comprehensive Analysis Chart
View Comprehensive Chart
Conjunction Data List
Event ID Objects TCA Miss Dist (km) Collision Risk Probability Collision Risk Index (CRI) Action
CDM_260913-075203-886305-954521
2026-09-13T
07:52:07+0000
2.736 km
极远距离
1.067565E-6 低风险 0.36
Miss Distance Evolution Trend with All Objects
Collision Probability Evolution Trend with All Objects